AQI (31)

Current Conditions for Foresthill, CA. Sunny, Dry   
Visibility: 10 miles
Space WX Alerts: SUMMARY:  10cm Radio Burst ( Latest Alert ) - Issue Time: 2020 Nov 29 1348 UTC

  Summary / Temperature 

Current Temperature
58.0°F
14.4°C
(24/hr Ago)
56.5°F
(Apparent temp)
54.9°F
Cool
Wind Chill Graphs
58.0°F 

58.0°F/ 14.4°C
 --- Virtual Temp: 59.5°F ---

 Temp Rate:

 24/hr Difference:

 Avg Running Temp:

 Todays High:

 Todays Low:

 Y-days High:

 Y-days Low:

 Todays WChill:

 Y-days WChill:

 Evapotranspiration:

+0.2°F/hr 

+1.5°F

59.6°F

61.2°F 1:36pm

42.6°F 4:17am

58.7°F 1:43pm

40.2°F 4:41am

38.0°F 5:51am

31.2°F 6:36am

0.055 in

115' Above Ground

 Temperature:

 6'AGL VRS 115'AGL:

 Avg Running Temp:

 Humidity:

 Todays High:

 Todays Low:

 Y-days High:

 Y-days Low:

61.0°F 

+3°F

60.8°F

37% 

63.0°F 1:22pm

52.0°F 9:19am

62.0°F 11:24am

50.0°F 9:20am

Temp & Humidity Graphs

  Wind 

Wind Speed

 Calm

Gusting to

 None

Calm

138°  

Calm

 Avg speed:

 Wind Run:

 Peak Gust:

Calm 

14.0 miles

  9.0 mph 7:52am

  Almanac  

Moon age: 14 days,8 hours,42 minutes,100%

Full moon
100%
Illuminated
14 days in cycle

 Moonrise:

 Moonset:

 Sunrise:

 Sunset:

 Solar Noon:

4:28pm

6:16am

7:01am

4:41pm

11:52am

1min 21s less daylight tomorrow 

  Solar Radiation 

(Current Solar)
  227 W/m2 (105%)
(Todays High)
 497 W/m2@12:13pm
Feels like: 62.2°F in the sun

Rain

 Rain Today:

 Rain Rate (/hr):

 Rain last hour:

 Rain Yesterday:

 This Month:

 Season Total:

9 Days Since Last Rain Day

0.00 in

0.000 in

0.00 in

0.00 in

4.04 in

4.05 in

Updated Time

Updated: 11/29/20  2:57pm

(Updated  sec ago)

Humidity & Barometer

 Humidity:

 Wetbulb:

 Dew Point:

 Barometer:

42% 

48.3°F 

35.0°F 

30.223 inHg 

 Baro Trend:  Steady 
Northern Calif
Preparedness
Fire 
Level 

    UV Index  

(Current UV)
0.5  Low
(Todays High) @ 11:34am
1.9   Low

National Weather Service Forecast

This
Afternoon
This Afternoon: Sunny
Sunny
Tonight

Tonight: Mostly Clear
Mostly Clear
Monday

Monday: Sunny
Sunny
Monday
Night
Monday Night: Clear
Clear
Tuesday

Tuesday: Sunny
Sunny
Tuesday
Night
Tuesday Night: Clear
Clear
Hi 61 °F ↓ Lo 40 °F ↑ Hi 60 °F ↓ Lo 41 °F Hi 59 °F Lo 42 °F

Foresthill Probe 2 Stats  
Foresthill Probe 2: is located on Thomas Street
at 3000 feet. The main Foresthill Weather site
is located on Melody ln at the 2860 foot elevation

Calm
54.2°F
12.3°C
Temp Rate:
0°F
Calm
Gusting to
None
(Humidity)
55%
Calm
61°  
Updated: 29/11/20 - 14:57:30
 Todays High: 56.2°F 12:29
 Todays Low: 40.5°F 05:28
 Rain Today: 0.00 in
 Season Total: 4.59 in

Foresthill Wx: Monthly,Yearly, Highs and Lows 

Foresthill  
This Weather Data is coming from the main Foresthill
Weather site located on Melody ln at the 2860 foot
elevation
Not Foresthill Probe 2
Weather Data
Month
  High
Month
  Low
Year
High
Year
Low
Temp 82.3°F
11/2/20
30.9°F
11/9/20
101.8°F
8/15/20
28.3°F
2/3/20
Humidity 100%
11/19/20
10%
11/4/20
100%
1/8/20
6%
9/8/20
Heat Index 79.9°F
11/2/20
33.9°F
11/9/20
101.7°F
8/17/20
28.2°F
2/4/20
Wind Chill 82.3°F
11/2/20
19.3°F
11/9/20
101.8°F
8/15/20
14.7°F
2/3/20
Wind Gust 31 mph
11/13/20
0 mph
11/1/20
46 mph
2/9/20
0 mph
1/1/20
Barometer 30.40 in
11/15/20
29.65 in
11/6/20
30.59 in
1/5/20
29.57 in
6/28/20
ET 0.13 in
11/1/20
0.00 in
11/1/20
0.31 in
6/27/20
0.00 in
1/1/20
Dew Point 47.5°F
11/14/20
14.1°F
11/26/20
67.5°F
6/26/20
-2.6°F
2/3/20
Visible Satellite Pacific Satellite US Radar Satellite Imagery Sacramento,CA.  (click to enlarge)
NWS Weather Forecast - Summary
Updated: Sunday, November 29, 2020 - 2:16pm PST
NWS Weather Forecast: This Afternoon and Tonight (Updated: Sun, 29-Nov-2020 1:41pm PST)
This
Afternoon
This Afternoon: Sunny
Sunny

Hi 61 °F ↓
NWS forecast: Sunny. High near 61, with temperatures falling to around 46 in the afternoon. Southwest wind around 5 mph.
Tonight

Tonight: Mostly Clear
Mostly Clear

Lo 40 °F ↑
NWS forecast: Mostly clear. Low around 40, with temperatures rising to around 42 overnight. East wind 2 to 6 mph.
YR.NO 10 Day Weather forecast
Last update: 11/29/2020 @ 05:31
Next update: 11/29/2020 @ 11:42
Provided by: 22
      Temperature Precipitation Pressure Wind  
Today
11/29/2020
12:00 18:00 57°F   30.17 inHg Light air from west-southwest 3 mph
  18:00 00:00 45°F   30.18 inHg Light air from east 2 mph
    (Click to enlarge)
meteogram

    Forecast for next 9 days

      Temperature Precip Pressure Wind  
Monday
11/30/2020
00:00 06:00 36°F   30.22 inHg Light breeze from east 5 mph
  06:00 12:00 30°F   30.24 inHg Light breeze from east-northeast 4 mph
  12:00 18:00 59°F   30.22 inHg Light breeze from west-southwest 4 mph
  18:00 00:00 45°F   30.23 inHg Light air from east 2 mph
      Temperature Precip Pressure Wind  
Tuesday
12/01/2020
00:00 06:00 34°F   30.22 inHg Light breeze from east-northeast 5 mph
  06:00 12:00 34°F   30.17 inHg Gentle breeze from east-northeast 8 mph
  12:00 18:00 63°F   30.11 inHg Light air from west-northwest 1 mph
  16:00 22:00 52°F   30.09 inHg Light air from west-northwest 2 mph
  22:00 04:00 39°F   30.13 inHg Light breeze from east-northeast 6 mph
      Temperature Precip Pressure Wind  
Wednesday
12/02/2020
04:00 10:00 37°F   30.12 inHg Gentle breeze from east-northeast 8 mph
  10:00 16:00 57°F   30.12 inHg Light air from east-northeast 3 mph
  16:00 22:00 54°F   30.05 inHg Light air from west-northwest 2 mph
  22:00 04:00 43°F   30.06 inHg Light breeze from east-northeast 7 mph
      Temperature Precip Pressure Wind  
Thursday
12/03/2020
04:00 10:00 39°F   30.09 inHg Gentle breeze from east-northeast 9 mph
  10:00 16:00 55°F   30.21 inHg Light breeze from east-northeast 4 mph
  16:00 22:00 52°F   30.22 inHg Light air from west-northwest 2 mph
  22:00 04:00 37°F   30.32 inHg Light breeze from east-northeast 7 mph
      Temperature Precip Pressure Wind  
Friday
12/04/2020
04:00 10:00 36°F   30.32 inHg Gentle breeze from east-northeast 8 mph
  10:00 16:00 54°F   30.31 inHg Light air from east-northeast 3 mph
  16:00 22:00 52°F   30.21 inHg Light air from west-northwest 2 mph
  22:00 04:00 36°F   30.19 inHg Light breeze from east-northeast 6 mph
      Temperature Precip Pressure Wind  
Saturday
12/05/2020
04:00 10:00 32°F   30.16 inHg Light breeze from east-northeast 4 mph
  10:00 16:00 55°F   30.19 inHg Light air from east-northeast 1 mph
  16:00 22:00 50°F   30.15 inHg Light air from north-northeast 2 mph
  22:00 04:00 34°F   30.16 inHg Light breeze from east 5 mph
      Temperature Precip Pressure Wind  
Sunday
12/06/2020
04:00 10:00 30°F   30.14 inHg Light breeze from east-northeast 5 mph
  10:00 16:00 55°F   30.19 inHg Light air from east-northeast 2 mph
  16:00 22:00 52°F   30.12 inHg Light air from west-northwest 2 mph
  22:00 04:00 34°F   30.13 inHg Light breeze from east 6 mph
      Temperature Precip Pressure Wind  
Monday
12/07/2020
04:00 10:00 30°F   30.13 inHg Light breeze from east 4 mph
  10:00 16:00 55°F   30.22 inHg Light air from south-southwest 1 mph
  16:00 22:00 50°F   30.20 inHg Light air from west 2 mph
  22:00 04:00 36°F   30.22 inHg Light air from east 3 mph
      Temperature Precip Pressure Wind  
Tuesday
12/08/2020
04:00 10:00 34°F   30.21 inHg Light air from east 3 mph
How Close Are We To this Month's Temperature Record ?
Updated Sunday, Nov 29, 2020- 2:55:00 PM

Current Temperature: 58.0°F

November's High: Temperature Record 82.3°F - Set on Mon, Nov 2, 2020 - 12:23:23 PM
We are currently 24.3°F Less than this Month's record High

November's Low: Temperature Record 28.9°F - Set on Thu, Nov 26, 2015 - 6:22:00 AM
We are currently 29.1°F More than this Month's record Low

Weather History For Sunday, November 29, 2020


On this Day - In Weather History ...
Data courtesy of weatherforyou.com
powered by Cumulus v1.9.3 (1059)
Ambient Weather VWS v14.00
Top Website Map Copyright © 2007 - 2020 Foresthillweather.com Never base important decisions on this or any weather information obtained from the Internet